Location: Barcelona
(41.3830°N, 2.1830°E)
Time: 16:18:46
(UTC+02:00)

ISS - Pass Details

Date: 08 March 2021
Orbit: 418 x 422 km, 51.6° (Epoch: 16 April)

Event Time Altitude Azimuth Distance (km) Brightness Sun altitude
Exits shadow 05:42:58 17° 336° (NNW) 1,163 -1.7 -18.0°
Maximum altitude 05:44:47 26° 22° (NNE) 871 -1.8 -17.6°
Drops below altitude 10° 05:47:39 10° 81° (E) 1,496 0.4 -17.1°
Sets 05:49:59 0° 95° (E) 2,358 1.6 -16.7°
